| time (UTC) | temp F | wind direction | speed MPH | gust MPH | rain 1hr in | rain 24hr in | rain mn in | humidity % | barometer mb |
| 20260509052624 | 47 | 62 | 1.0 | 3.0 | 0.00 | 0.00 | 0.00 | 89 | 1008.8 |
| 20260509051636 | 47 | 74 | 3.0 | 3.0 | 0.00 | 0.00 | 0.00 | 88 | 1008.8 |
| 20260509050609 | 48 | 179 | 0.0 | 0.0 | 0.00 | 0.00 | 0.00 | 86 | 1009.2 |
| 20260509045615 | 48 | 179 | 0.0 | 1.0 | 0.00 | 0.00 | 0.00 | 85 | 1009.1 |
| 20260509044617 | 48 | 179 | 0.0 | 0.0 | 0.00 | 0.00 | 0.00 | 84 | 1009.1 |
| 20260509043612 | 48 | 179 | 0.0 | 0.0 | 0.00 | 0.00 | 0.00 | 83 | 1009.0 |
| 20260509042639 | 49 | 179 | 0.0 | 1.0 | 0.00 | 0.00 | 0.00 | 81 | 1008.9 |
| 20260509040612 | 49 | 311 | 0.0 | 6.0 | 0.00 | 0.00 | 0.00 | 80 | 1009.1 |
| 20260509035602 | 49 | 307 | 5.0 | 7.0 | 0.00 | 0.00 | 0.00 | 80 | 1009.2 |
| 20260509034601 | 49 | 303 | 5.0 | 8.0 | 0.00 | 0.00 | 0.00 | 81 | 1009.2 |
| 20260509033633 | 48 | 282 | 2.0 | 5.0 | 0.00 | 0.00 | 0.00 | 84 | 1009.3 |
| 20260509032634 | 48 | 312 | 0.0 | 4.0 | 0.00 | 0.00 | 0.00 | 85 | 1009.1 |
| 20260509031626 | 48 | 333 | 0.0 | 2.0 | 0.00 | 0.00 | 0.00 | 85 | 1009.1 |
| 20260509030622 | 48 | 349 | 1.0 | 2.0 | 0.00 | 0.00 | 0.00 | 85 | 1009.0 |
| 20260509025615 | 48 | 349 | 0.0 | 2.0 | 0.00 | 0.00 | 0.00 | 84 | 1009.1 |
| 20260509024631 | 48 | 179 | 0.0 | 2.0 | 0.00 | 0.00 | 0.00 | 83 | 1009.1 |
| 20260509023612 | 48 | 198 | 1.0 | 3.0 | 0.00 | 0.00 | 0.00 | 82 | 1009.1 |
| 20260509022633 | 48 | 200 | 1.0 | 3.0 | 0.00 | 0.00 | 0.00 | 82 | 1009.2 |
| 20260509021621 | 48 | 311 | 1.0 | 5.0 | 0.00 | 0.00 | 0.00 | 83 | 1009.2 |
| 20260509015644 | 49 | 282 | 1.0 | 1.0 | 0.00 | 0.01 | 0.00 | 81 | 1008.9 |
| 20260509014633 | 50 | 282 | 0.0 | 2.0 | 0.00 | 0.01 | 0.00 | 80 | 1008.9 |
| 20260509013631 | 50 | 242 | 1.0 | 3.0 | 0.00 | 0.01 | 0.00 | 78 | 1008.9 |
| 20260509012635 | 50 | 250 | 1.0 | 6.0 | 0.00 | 0.01 | 0.00 | 76 | 1009.0 |
| 20260509011635 | 51 | 252 | 1.0 | 7.0 | 0.00 | 0.01 | 0.00 | 74 | 1009.0 |
| 20260509010644 | 51 | 263 | 1.0 | 7.0 | 0.00 | 0.01 | 0.00 | 73 | 1008.3 |
| 20260509004601 | 51 | 318 | 1.0 | 5.0 | 0.00 | 0.01 | 0.00 | 72 | 1008.0 |
| 20260509003633 | 52 | 250 | 1.0 | 6.0 | 0.00 | 0.01 | 0.00 | 70 | 1008.2 |
| 20260509001636 | 52 | 247 | 3.0 | 10.0 | 0.00 | 0.01 | 0.00 | 68 | 1011.8 |
| 20260509000633 | 53 | 258 | 3.0 | 7.0 | 0.00 | 0.01 | 0.00 | 68 | 1011.6 |
| 20260508235633 | 53 | 242 | 5.0 | 13.0 | 0.00 | 0.01 | 0.00 | 68 | 1011.5 |
| 20260508234619 | 53 | 236 | 2.0 | 18.0 | 0.00 | 0.01 | 0.00 | 69 | 1011.5 |
| 20260508231604 | 54 | 242 | 3.0 | 13.0 | 0.00 | 0.01 | 0.00 | 68 | 1011.5 |
| 20260508230643 | 54 | 238 | 4.0 | 13.0 | 0.00 | 0.01 | 0.00 | 69 | 1011.2 |
| 20260508225612 | 54 | 268 | 2.0 | 13.0 | 0.00 | 0.01 | 0.00 | 68 | 1011.1 |
| 20260508223625 | 54 | 245 | 5.0 | 17.0 | 0.00 | 0.01 | 0.00 | 68 | 1011.1 |
| 20260508222614 | 54 | 250 | 5.0 | 16.0 | 0.00 | 0.01 | 0.00 | 69 | 1011.1 |
| 20260508221609 | 54 | 251 | 3.0 | 14.0 | 0.00 | 0.01 | 0.00 | 70 | 1011.1 |
| 20260508220610 | 54 | 255 | 6.0 | 17.0 | 0.00 | 0.01 | 0.00 | 69 | 1011.3 |
| 20260508215638 | 53 | 235 | 6.0 | 14.0 | 0.00 | 0.01 | 0.00 | 73 | 1011.3 |
| 20260508214628 | 52 | 263 | 2.0 | 11.0 | 0.00 | 0.01 | 0.00 | 77 | 1011.3 |
| 20260508213636 | 52 | 263 | 3.0 | 6.0 | 0.00 | 0.01 | 0.00 | 78 | 1011.3 |
| 20260508212621 | 51 | 279 | 2.0 | 8.0 | 0.00 | 0.01 | 0.00 | 79 | 1011.1 |
| 20260508211607 | 51 | 287 | 2.0 | 12.0 | 0.00 | 0.01 | 0.00 | 80 | 1011.1 |
| 20260508210609 | 50 | 271 | 3.0 | 10.0 | 0.00 | 0.01 | 0.00 | 81 | 1011.2 |
| 20260508205609 | 50 | 284 | 3.0 | 6.0 | 0.00 | 0.01 | 0.00 | 81 | 1011.6 |
| 20260508204636 | 50 | 269 | 1.0 | 3.0 | 0.00 | 0.01 | 0.00 | 81 | 1011.6 |
| 20260508203639 | 51 | 269 | 2.0 | 14.0 | 0.00 | 0.01 | 0.00 | 78 | 1011.9 |
| 20260508202646 | 52 | 235 | 6.0 | 20.0 | 0.00 | 0.01 | 0.00 | 72 | 1011.6 |
| 20260508201625 | 55 | 253 | 10.0 | 25.0 | 0.00 | 0.01 | 0.00 | 60 | 1011.6 |
| 20260508200613 | 57 | 248 | 10.0 | 22.0 | 0.00 | 0.01 | 0.00 | 52 | 1011.1 |
| 20260508195633 | 57 | 257 | 4.0 | 14.0 | 0.00 | 0.01 | 0.00 | 52 | 1011.0 |
| 20260508194631 | 57 | 231 | 8.0 | 18.0 | 0.00 | 0.01 | 0.00 | 52 | 1011.0 |
| 20260508193605 | 56 | 259 | 5.0 | 14.0 | 0.00 | 0.01 | 0.00 | 52 | 1011.1 |
| 20260508192621 | 55 | 184 | 1.0 | 5.0 | 0.00 | 0.01 | 0.00 | 59 | 1011.2 |
| 20260508190628 | 55 | 306 | 3.0 | 7.0 | 0.00 | 0.01 | 0.00 | 59 | 1011.1 |
| 20260508185604 | 55 | 351 | 5.0 | 9.0 | 0.00 | 0.01 | 0.00 | 60 | 1011.1 |
| 20260508184644 | 56 | 11 | 5.0 | 11.0 | 0.00 | 0.01 | 0.00 | 59 | 1011.1 |
| 20260508183644 | 55 | 348 | 5.0 | 11.0 | 0.00 | 0.01 | 0.00 | 58 | 1011.6 |
| 20260508182610 | 56 | 300 | 8.0 | 13.0 | 0.00 | 0.01 | 0.00 | 53 | 1011.1 |
| 20260508180611 | 56 | 245 | 7.0 | 13.0 | 0.00 | 0.01 | 0.00 | 52 | 1011.6 |
| 20260508175626 | 56 | 298 | 5.0 | 11.0 | 0.00 | 0.01 | 0.00 | 53 | 1012.0 |
| 20260508174646 | 56 | 246 | 4.0 | 18.0 | 0.00 | 0.01 | 0.00 | 55 | 1012.0 |
| 20260508173624 | 56 | 314 | 6.0 | 10.0 | 0.00 | 0.01 | 0.00 | 56 | 1012.0 |
| 20260508172618 | 54 | 351 | 3.0 | 9.0 | 0.00 | 0.01 | 0.00 | 62 | 1012.3 |
| 20260508171642 | 51 | 268 | 3.0 | 13.0 | 0.00 | 0.01 | 0.00 | 65 | 1012.3 |
| 20260508165613 | 55 | 241 | 7.0 | 14.0 | 0.00 | 0.01 | 0.00 | 52 | 1012.2 |
| 20260508164617 | 55 | 244 | 8.0 | 19.0 | 0.00 | 0.01 | 0.00 | 50 | 1012.2 |
| 20260508163623 | 55 | 245 | 6.0 | 13.0 | 0.00 | 0.01 | 0.00 | 53 | 1012.2 |
| 20260508162614 | 55 | 297 | 4.0 | 12.0 | 0.00 | 0.01 | 0.00 | 52 | 1012.3 |
| 20260508161632 | 55 | 280 | 3.0 | 15.0 | 0.00 | 0.01 | 0.00 | 51 | 1012.3 |
| 20260508155619 | 54 | 256 | 8.0 | 20.0 | 0.00 | 0.01 | 0.00 | 52 | 1012.5 |
| 20260508153636 | 55 | 293 | 2.0 | 13.0 | 0.00 | 0.01 | 0.00 | 56 | 1012.4 |
| 20260508152626 | 55 | 295 | 14.0 | 25.0 | 0.00 | 0.01 | 0.00 | 51 | 1012.4 |
| 20260508150618 | 55 | 247 | 8.0 | 20.0 | 0.00 | 0.01 | 0.00 | 55 | 1012.3 |
| 20260508145627 | 54 | 264 | 4.0 | 16.0 | 0.00 | 0.01 | 0.00 | 54 | 1012.0 |
| 20260508144623 | 54 | 229 | 10.0 | 19.0 | 0.00 | 0.01 | 0.00 | 55 | 1012.0 |
| 20260508143645 | 53 | 241 | 9.0 | 19.0 | 0.00 | 0.01 | 0.00 | 54 | 1012.3 |
| 20260508142600 | 53 | 239 | 9.0 | 21.0 | 0.00 | 0.01 | 0.00 | 53 | 1012.6 |
| 20260508141609 | 53 | 255 | 7.0 | 18.0 | 0.00 | 0.01 | 0.00 | 55 | 1012.6 |
| 20260508135636 | 51 | 202 | 3.0 | 11.0 | 0.00 | 0.01 | 0.00 | 61 | 1012.6 |
| 20260508134622 | 50 | 206 | 5.0 | 12.0 | 0.00 | 0.01 | 0.00 | 63 | 1012.6 |
| 20260508133617 | 49 | 192 | 5.0 | 12.0 | 0.00 | 0.01 | 0.00 | 63 | 1012.7 |
| 20260508131621 | 46 | 244 | 5.0 | 8.0 | 0.00 | 0.01 | 0.00 | 69 | 1012.8 |
| 20260508130607 | 45 | 243 | 1.0 | 7.0 | 0.00 | 0.01 | 0.00 | 74 | 1013.1 |
| 20260508125603 | 44 | 249 | 2.0 | 7.0 | 0.00 | 0.01 | 0.00 | 74 | 1012.9 |
| 20260508124608 | 43 | 251 | 1.0 | 6.0 | 0.00 | 0.01 | 0.00 | 76 | 1012.9 |
| 20260508123611 | 42 | 244 | 3.0 | 6.0 | 0.00 | 0.01 | 0.00 | 77 | 1013.0 |
| 20260508122604 | 41 | 214 | 2.0 | 5.0 | 0.00 | 0.01 | 0.00 | 81 | 1013.0 |
| 20260508121608 | 40 | 224 | 1.0 | 2.0 | 0.00 | 0.01 | 0.00 | 84 | 1013.0 |
| 20260508115645 | 38 | 224 | 0.0 | 0.0 | 0.00 | 0.01 | 0.00 | 86 | 1012.9 |
| 20260508114632 | 38 | 224 | 0.0 | 0.0 | 0.00 | 0.01 | 0.00 | 88 | 1012.9 |
| 20260508112603 | 37 | 224 | 0.0 | 0.0 | 0.00 | 0.01 | 0.00 | 89 | 1013.2 |
| 20260508111622 | 36 | 224 | 0.0 | 0.0 | 0.00 | 0.01 | 0.00 | 90 | 1013.2 |
| 20260508110621 | 35 | 224 | 0.0 | 1.0 | 0.00 | 0.01 | 0.00 | 91 | 1013.2 |
| 20260508105611 | 35 | 224 | 0.0 | 1.0 | 0.00 | 0.01 | 0.00 | 91 | 1012.9 |
| 20260508104606 | 35 | 224 | 0.0 | 1.0 | 0.00 | 0.01 | 0.00 | 91 | 1012.9 |
| 20260508103637 | 34 | 224 | 0.0 | 2.0 | 0.00 | 0.01 | 0.00 | 91 | 1012.8 |
| 20260508102611 | 34 | 224 | 0.0 | 2.0 | 0.00 | 0.01 | 0.00 | 92 | 1013.2 |
| 20260508100626 | 33 | 215 | 1.0 | 3.0 | 0.00 | 0.01 | 0.00 | 91 | 1013.3 |
| 20260508095638 | 33 | 215 | 0.0 | 0.0 | 0.00 | 0.01 | 0.00 | 90 | 1013.1 |
| 20260508093622 | 33 | 215 | 0.0 | 0.0 | 0.00 | 0.01 | 0.00 | 89 | 1013.1 |
| 20260508091616 | 34 | 215 | 0.0 | 0.0 | 0.00 | 0.01 | 0.00 | 88 | 1013.0 |
| 20260508090622 | 34 | 215 | 0.0 | 0.0 | 0.00 | 0.01 | 0.00 | 88 | 1013.0 |
| 20260508085615 | 34 | 215 | 0.0 | 0.0 | 0.00 | 0.01 | 0.00 | 88 | 1012.8 |
| 20260508084615 | 35 | 215 | 0.0 | 0.0 | 0.00 | 0.01 | 0.00 | 87 | 1012.8 |
| 20260508083628 | 35 | 215 | 0.0 | 0.0 | 0.00 | 0.01 | 0.00 | 87 | 1012.8 |
| 20260508082608 | 35 | 215 | 0.0 | 0.0 | 0.00 | 0.01 | 0.00 | 86 | 1012.8 |
| 20260508081611 | 35 | 215 | 0.0 | 0.0 | 0.00 | 0.01 | 0.00 | 85 | 1012.8 |
| 20260508080631 | 36 | 215 | 0.0 | 0.0 | 0.00 | 0.01 | 0.00 | 85 | 1012.8 |
| 20260508075605 | 36 | 215 | 0.0 | 0.0 | 0.00 | 0.01 | 0.00 | 85 | 1012.8 |
| 20260508073646 | 36 | 215 | 0.0 | 1.0 | 0.00 | 0.01 | 0.00 | 85 | 1012.8 |
| 20260508072646 | 36 | 215 | 0.0 | 1.0 | 0.00 | 0.01 | 0.00 | 84 | 1012.8 |
| 20260508071640 | 37 | 215 | 0.0 | 0.0 | 0.00 | 0.01 | 0.00 | 83 | 1012.8 |
| 20260508070641 | 37 | 215 | 0.0 | 0.0 | 0.00 | 0.01 | 0.00 | 82 | 1013.1 |
| 20260508065634 | 38 | 215 | 0.0 | 1.0 | 0.00 | 0.01 | 0.00 | 80 | 1013.2 |
| 20260508064624 | 39 | 215 | 0.0 | 1.0 | 0.00 | 0.01 | 0.00 | 78 | 1013.2 |
| 20260508063644 | 40 | 215 | 1.0 | 2.0 | 0.00 | 0.01 | 0.00 | 75 | 1013.1 |
| 20260508060643 | 42 | 239 | 3.0 | 10.0 | 0.00 | 0.01 | 0.00 | 70 | 1012.9 |
| 20260508055626 | 42 | 253 | 3.0 | 7.0 | 0.00 | 0.01 | 0.00 | 75 | 1013.1 |
| 20260508054640 | 41 | 241 | 3.0 | 6.0 | 0.00 | 0.01 | 0.00 | 80 | 1013.1 |